Flag Weather past 2 weeks in Rio Branco, Acre, Brazil

Now
90 °F

Scattered clouds.


Feels Like: 93 °F
Forecast: N/A
Wind: 3 mph from Northwest

Location: Rio Branco Airport

Current Time: Nov 25, 2014 at 5:10:21 PM

Latest Report: Nov 25, 2014 at 4:00 PM


Visibility: N/A

Pressure: 29.68 "Hg

Humidity: 49%

Dew point: 68 °F

Location of Rio BrancoLocation

Historic Weather in Rio Branco — Graph

°F

Rio Branco temperature yesterday

Maximum temperature yesterday: 86 °F (at 4:00 PM)
Minimum temperature yesterday: 72 °F (at 12:00 AM)
Average temperature yesterday: 77 °F

Past Weeks' High & Low Weather Summary

 TemperatureHumidityPressure
High91 °F (Nov 22, 2:00 PM)100% (Nov 12, 7:00 PM)30.01 "Hg (Nov 12, 7:00 PM)
Low36 °F (Nov 13, 9:00 PM)24% (Nov 13, 5:00 PM)29.62 "Hg (Nov 12, 3:00 PM)
Average77 °F79%29.82 "Hg
* Reported Nov 10 3:00 PM — Nov 25 3:00 PM, Rio Branco, Weather by CustomWeather, © 2014

Note: Actual official high and low records may vary slightly from our data, if they occured in-between our weather recording intervals... More about our weather records

Advertising

Rio Branco weather history for previous 24 hours

 ConditionsComfort  
Time TempWeatherWind HumidityBarometerVisibility
3:00 PM
Nov 25
90 °FScattered clouds.6 mph49%29.68 "HgN/A
2:00 PM90 °FScattered clouds.7 mph49%29.71 "HgN/A
1:00 PM90 °FScattered clouds.9 mph49%29.74 "HgN/A
12:00 PM90 °FSunny.6 mph49%29.80 "Hg10 mi
11:00 AM88 °FScattered clouds.5 mph52%29.86 "HgN/A
10:00 AM86 °FScattered clouds.9 mph59%29.89 "HgN/A
9:00 AM86 °FSunny.9 mph59%29.89 "Hg10 mi
8:00 AM81 °FSunny.6 mph70%29.89 "Hg10 mi
7:00 AM79 °FSunny.2 mph84%29.89 "Hg10 mi
6:00 AM75 °FPartly sunny.No wind94%29.86 "HgN/A
5:00 AM73 °FPassing clouds.No wind94%29.83 "HgN/A
4:00 AM75 °FClear.No wind89%29.80 "Hg10 mi
3:00 AM75 °FClear.1 mph89%29.80 "Hg10 mi
2:00 AM75 °FClear.1 mph89%29.80 "Hg10 mi
1:00 AM77 °FClear.3 mph83%29.80 "Hg10 mi
12:00 AM77 °FClear.2 mph83%29.80 "Hg10 mi
11:00 PM
Nov 24
77 °FClear.2 mph83%29.83 "Hg10 mi
10:00 PM77 °FClear.2 mph89%29.83 "Hg10 mi
9:00 PM75 °FPassing clouds.6 mph83%29.83 "HgN/A
8:00 PM77 °FPassing clouds.5 mph79%29.80 "HgN/A
7:00 PM77 °FPassing clouds.5 mph79%29.77 "HgN/A
6:00 PM81 °FScattered clouds.5 mph74%29.74 "HgN/A
5:00 PM82 °FPassing clouds.5 mph66%29.71 "HgN/A
Weather by CustomWeather, © 2014

See weather overviewHow to use our weather pages